Location: Karcze
(52.0945°N, 22.4786°E)
Time: 11:43:27
(UTC+00:00)

SL-16 R/B - Pass Details

Date: 14 July 2020
Orbit: 985 x 1006 km, 99.5° (Epoch: 08 August)

Event Time Altitude Azimuth Distance (km) Brightness Sun altitude
Exits shadow 00:11:55 13° 172° (S) 2,565 4.2 -13.3°
Maximum altitude 00:17:36 71° 256° (WSW) 1,062 2.6 -13.0°
Drops below altitude 10° 00:23:53 10° 340° (NNW) 2,795 5.6 -12.6°
Sets 00:26:24 0° 343° (NNW) 3,750 6.3 -12.4°
